Preview of NWS' New Version of Forecast
This preview is not operational and should not be used for support decisions.

Regional Weather Roundup (RWR)

Issued by National Weather Service (NWS)

                            
000
ASUS45 KBOU 221110
RWRCO 

WEATHER ROUNDUP FOR COLORADO
NATIONAL WEATHER SERVICE DENVER/BOULDER CO
500 AM MDT MON JUL 22 2019

NOTE: "FAIR" INDICATES FEW OR NO CLOUDS BELOW 12000 FEET WITH NO
SIGNIFICANT WEATHER AND/OR OBSTRUCTIONS TO VISIBILITY.

COZ001>005-013-030-031-221200-
...NORTHWEST COLORADO...
  
CITY           SKY/WX    TMP DP  RH WIND       PRES   REMARKS
CRAIG          FAIR      66  47  50 E15G23    30.29R                  
HAYDEN         FAIR      64  48  56 E16       30.33R                  
MEEKER         FAIR      54  40  59 E3        30.28R                  
RANGELY        FAIR      70  40  33 E10       30.16S                  
RABBIT EARS PA NOT AVBL                                               
STEAMBOAT SPGS FAIR      52  47  81 CALM      30.36R                  
WALDEN         NOT AVBL                                               
$$

COZ006>008-011-221200-
...WEST CENTRAL VALLEYS...
  
CITY           SKY/WX    TMP DP  RH WIND       PRES   REMARKS
GRAND JUNCTION FAIR      73  41  31 E14       30.14R                  
MONTROSE       FAIR      67  42  40 S6        30.25R                  
EAGLE          FAIR      55  43  63 S3        30.39R                  
RIFLE          FAIR      59  42  53 CALM      30.23R                  
DELTA          FAIR      67  36  31 N6        30.20R                  
NUCLA          FAIR      63  30  29 SE9       30.26R                  
$$

COZ017>023-064>068-221200-
...SOUTHWEST COLORADO...
  
CITY           SKY/WX    TMP DP  RH WIND       PRES   REMARKS
DURANGO        FAIR      60  42  51 E5        30.36R                  
CORTEZ         FAIR      69  40  34 NE9G20    30.25R                  
PAGOSA SPRINGS FAIR      62  44  52 CALM      30.45R                  
TELLURIDE      FAIR      63  32  31 E3        30.53R                  
WOLF CREEK PAS NOT AVBL                                               
$$

COZ009-010-012-014-032>034-037-058>063-221200-
...CENTRAL COLORADO...
  
CITY           SKY/WX    TMP DP  RH WIND       PRES   REMARKS
ASPEN          FAIR      64  43  46 SE5       30.41R                  
BUENA VISTA    FAIR      48  46  91 W6        30.53S                  
COPPER MTN     FAIR      52  41  66 S10G17    30.77R                  
BERTHOUD PASS  FAIR      43  32  65 S7        30.80R                  
COTTONWOOD PAS NOT AVBL                                               
GUNNISON       FAIR      50  42  74 N10       30.48R                  
GRANBY         NOT AVBL                                               
KREMMLING      FAIR      50  45  81 CALM      30.46R                  
LEADVILLE      CLOUDY    46  46 100 NW3       30.64R                  
SALIDA         FAIR      53  51  92 CALM      30.58R                  
SUNLIGHT       FAIR      50  37  62 E8        30.66S                  
WILKERSON PASS FAIR      46  37  71 W3        30.76R                  
$$

COZ069>075-221200-
...SAN LUIS VALLEY/SANGRE DE CRISTO MOUNTAINS...
  
CITY           SKY/WX    TMP DP  RH WIND       PRES   REMARKS
ALAMOSA        FAIR      55  46  71 W6        30.47R                  
DEL NORTE      FAIR      53  44  71 W12       30.50F                  
LA VETA PASS   NOT AVBL                                               
SAGUACHE       FAIR      54  41  62 CALM      30.50R                  
$$

COZ035-036-038>040-221200-
...NORTHERN COLORADO FRONT RANGE...
  
CITY           SKY/WX    TMP DP  RH WIND       PRES   REMARKS
DENVER INTL AP FAIR      58  55  90 S8        30.36R                  
AURORA         PTCLDY    60  59  99 S5        30.38R                  
FRONT RANGE AP FAIR      61  56  84 S6        30.38R                  
ERIE MUNI ARPT CLOUDY    63  61  94 W3        30.40S                  
BOULDER MUN AP CLOUDY    64  61  88 CALM      30.36R                  
CENTENNIAL     FAIR      60  56  86 S3        30.39R                  
BROOMFIELD     CLOUDY    63  61  94 NW6       30.38S                  
FORT COLLINS   CLOUDY    63  60  90 NE8       30.36R                  
LONGMONT       FAIR      65  60  86 N3        30.36S                  
$$

COZ041-046-047-076>085-087-088-221200-
...PIKES PEAK/PALMER DIVIDE AND SOUTHERN FOOTHILLS...
  
CITY           SKY/WX    TMP DP  RH WIND       PRES   REMARKS
COLO. SPRINGS  FAIR      58  52  80 NW3       30.43R                  
A. F. ACADEMY  FAIR      53  53  99 N7        30.42R                  
SCHRIEVER AFB  NOT AVBL                                               
CHEYENNE MTN   NOT AVBL                                               
ELLICOTT         N/A    N/A N/A N/A E9        30.40R                  
FALCON         FAIR      54  51  90 NW6       30.46R                  
FORT CARSON    FAIR      57  53  87 W3        30.39R                  
LIMON          CLOUDY    62  61  96 SE9       30.39R                  
MONUMENT HILL  FAIR      50  48  93 SE6       30.48R                  
CANON CITY     FAIR      61  55  82 N3        30.37R                  
WALSENBURG     NOT AVBL                                               
TRINIDAD       FAIR      61  57  87 CALM      30.39R                  
$$

COZ042>045-048>051-090-091-221200-
...NORTHEAST COLORADO...
  
CITY           SKY/WX    TMP DP  RH WIND       PRES   REMARKS
GREELEY ARPT   FAIR      61  60  97 E8        30.34S                  
AKRON          CLOUDY    63  61  93 SE9       30.36R                  
BURLINGTON     CLOUDY    64  61  90 E6        30.35R                  
WRAY           CLOUDY    63  63 100 E6        30.34S FOG              
YUMA           RAIN      61  46  59 E7        30.35R                  
STERLING       DRIZZLE   63  63 100 E6        30.34R                  
HOLYOKE        CLOUDY    63  59  88 E8        30.35R                  
FORT MORGAN    NOT AVBL                                               
$$

COZ086-089-092>099-221200-
...SOUTHEAST COLORADO...
  
CITY           SKY/WX    TMP DP  RH WIND       PRES   REMARKS
PUEBLO         FAIR      62  60  93 SW3       30.33R                  
LA JUNTA       FAIR      65  62  90 SE7       30.33R                  
LAMAR          CLOUDY    67  62  84 E8        30.30R                  
SPRINGFIELD      N/A     62  62 100 E10       30.34R                  
$$